Find Starlink 11545

NORAD ID: 63016 Int'l Des: 2025-032 Owner: SPXS Country: US Constellation: starlink operational
LEOCIRCULAR

現在のビュー

3D地球を読み込み中...

About Starlink 11545

Starlink 11545 (NORAD 63016) is a starlink constellation satellite (v2 mini d2c) launched Feb 15, 2025 by SPXS of US. It operates in LEO, CIRCULAR orbit with a mass of 960.00 kg.

Starlink 11545について

説明を読み込み中...

次回通過

Passes for default location (London). Set your location on the main map for personalized predictions.

高度履歴

Loading altitude history...

軌道要素

1 63016U 25032M 26161.25599495 .00252766 00000-0 19033-2 0 9998
2 63016 43.0037 357.2391 0003583 275.0425 85.0033 15.70971640 76786
Epoch: Jun 10, 2026 • Age: 7 hours

現在のステータス

高度 355.6 km
速度 7.70 km/s
衛星直下点 3.53°N, 78.03°E
打ち上げ日 Feb 15, 2025
運用期間 1.3 years
タイプ internet

技術仕様

分類 Payload
質量 960.00 kg
乾燥質量 910.00 kg
総質量 960.00 kg
長さ 0.30 m
直径 4.10 m
スパン 29.00 m
形状 Box + pan
製造者 SPXS
バスタイプ Starlink V2MD
フェーズステータス In Orbit
所有者/国 SPXS/US

Most Searched